Groton, CT

7:29 AM EDT on May 25, 2017 (GMT -0400)
Groton-New London

Weather History for KGON - April, 2012

Change the Weather History Date:

Saturday, April 14, 2012

  Actual Average Record
Temperature  
Mean Temperature 48 °F -  
Max Temperature 62 °F 54 °F 70 °F (1977)
Min Temperature 35 °F 36 °F 26 °F (1973)
Degree Days  
Heating Degree Days 16    
Moisture  
Dew Point 38 °F    
Average Humidity 66    
Maximum Humidity 96    
Minimum Humidity 32    
Precipitation  
Precipitation 0.00 in - - ()
Sea Level Pressure  
Sea Level Pressure 30.10 in    
Wind  
Wind Speed 5 mph (WSW)    
Max Wind Speed 17 mph    
Max Gust Speed 22 mph    
Visibility 10 miles    
Events      
Averages and records for this station are not official NWS values.
T = Trace of Precipitation, MM = Missing Value Source: NWS Daily Summary

Daily Weather History Graph

Daily Weather History Graph

Search for Another Location

Airport or City:

Trip Planner

Search our weather history database for the weather conditions in past years. The results will help you decide how hot, cold, wet, or windy it might be!

Date:

Astronomy

Apr. 14, 2012 Rise Set
Actual Time 6:09 AM EDT 7:27 PM EDT
Civil Twilight 5:40 AM EDT 7:56 PM EDT
Nautical Twilight 5:06 AM EDT 8:30 PM EDT
Astronomical Twilight 4:30 AM EDT 9:07 PM EDT
Moon 2:35 AM EDT (4/14) 1:13 PM EDT (4/14)
Length of Visible Light 14h 15m
Length of Day
13h 18m
Last Quarter, 37% of the Moon is Illuminated
Apr 14
Last Quarter
Apr 21
New
Apr 29
First Quarter
May 5
Full
May 12
Last Quarter

Hourly Weather History & Observations

Time (EDT) Temp. Windchill Dew Point Humidity Pressure Visibility Wind Dir Wind Speed Gust Speed Precip Events Conditions
12:56 AM 46.9 °F - 37.9 °F 71% 30.13 in 10.0 mi West 3.5 mph - N/A   Clear
1:56 AM 42.1 °F - 37.0 °F 82% 30.13 in 10.0 mi Calm Calm - N/A   Clear
2:56 AM 39.0 °F - 36.0 °F 89% 30.12 in 10.0 mi Calm Calm - N/A   Clear
3:56 AM 35.1 °F - 34.0 °F 96% 30.12 in 10.0 mi Calm Calm - N/A   Clear
4:56 AM 36.0 °F - 33.1 °F 89% 30.14 in 10.0 mi Calm Calm - N/A   Clear
5:56 AM 37.0 °F - 34.0 °F 89% 30.15 in 10.0 mi Calm Calm - N/A   Clear
6:56 AM 39.0 °F 35.7 °F 30.9 °F 73% 30.16 in 10.0 mi NW 4.6 mph - N/A   Clear
7:56 AM 50.0 °F - 35.1 °F 57% 30.18 in 10.0 mi Calm Calm - N/A   Clear
8:56 AM 57.0 °F - 28.9 °F 34% 30.17 in 10.0 mi WNW 6.9 mph - N/A   Clear
9:56 AM 60.1 °F - 30.0 °F 32% 30.17 in 10.0 mi Variable 4.6 mph - N/A   Clear
10:56 AM 57.9 °F - 39.9 °F 51% 30.15 in 10.0 mi SW 11.5 mph - N/A   Clear
11:56 AM 57.0 °F - 39.9 °F 53% 30.13 in 10.0 mi SW 16.1 mph - N/A   Clear
12:56 PM 57.0 °F - 39.0 °F 51% 30.10 in 10.0 mi SW 17.3 mph 21.9 mph N/A   Clear
1:56 PM 59.0 °F - 37.0 °F 44% 30.09 in 10.0 mi WSW 13.8 mph - N/A   Clear
2:56 PM 62.1 °F - 34.0 °F 35% 30.08 in 10.0 mi WSW 13.8 mph - N/A   Clear
3:56 PM 59.0 °F - 35.6 °F 42% 30.05 in 10.0 mi WSW 10.4 mph - N/A   Clear
4:56 PM 55.9 °F - 42.1 °F 60% 30.04 in 10.0 mi SW 9.2 mph - N/A   Clear
5:56 PM 55.9 °F - 45.0 °F 67% 30.05 in 10.0 mi SW 9.2 mph - N/A   Clear
6:56 PM 54.0 °F - 42.1 °F 64% 30.04 in 10.0 mi SW 9.2 mph - N/A   Clear
7:56 PM 53.1 °F - 42.1 °F 66% 30.05 in 10.0 mi Calm Calm - N/A   Clear
8:56 PM 54.0 °F - 46.0 °F 75% 30.05 in 10.0 mi SW 8.1 mph - N/A   Mostly Cloudy
9:56 PM 53.1 °F - 46.9 °F 80% 30.03 in 10.0 mi Calm Calm - N/A   Partly Cloudy
10:56 PM 53.1 °F - 48.0 °F 83% 30.02 in 10.0 mi Calm Calm - 0.00 in   Overcast
11:56 PM 52.0 °F - 48.9 °F 89% 30.03 in 9.0 mi SSE 3.5 mph - N/A   Mostly Cloudy